Wind_Speed
23 21 16 21 18 41 40 44 37 38 38 35 19 18 21 25 25 25 27 19 17 23 21 22 26 29 31 32 34 36 39 40 40 37 35 34 32 32 31 31 28 26 26 27
25 17 17 22 17 20 42 38 39 37 25 21 21 21 19 18 12 11 11 13 14 19 22 21 24 25 27 30 32 34 37 38 37 36 36 34 33 32 31 29 27 26 26 27
7 18 3 7 25 11 15 10 22 14 22 28 24 30 31 24 26 18 11 8 7 10 10 12 16 19 23 26 29 30 32 34 35 34 33 33 32 31 30 29 27 26 27 27
12 19 3 13 25 22 29 22 14 9 20 29 34 27 22 23 28 19 14 14 9 10 13 11 16 20 20 22 24 26 28 30 32 32 32 33 32 31 31 30 29 28 28 25
7 9 6 39 27 14 12 30 26 20 1 23 29 29 30 33 30 26 17 19 16 15 13 14 16 18 21 22 25 26 28 29 28 28 29 31 30 32 33 33 33 28 25 26
9 4 6 36 22 16 26 26 28 26 22 3 10 14 24 26 41 36 24 22 22 23 24 18 18 20 19 18 19 22 24 24 25 26 28 28 31 33 35 36 30 27 24 26
20 6 4 37 33 14 13 18 28 26 22 20 10 6 17 24 26 30 30 23 22 22 23 26 28 28 27 22 21 22 22 24 26 27 28 30 31 35 37 33 28 24 24 25
13 8 2 34 28 29 25 19 23 22 21 19 14 1 9 18 21 23 26 24 22 22 25 28 31 33 31 27 22 22 23 24 27 28 29 29 32 33 32 29 25 24 23 23
10 10 13 31 15 25 28 24 22 22 20 19 17 11 1 5 13 15 21 25 24 25 27 29 29 31 28 27 25 24 25 26 27 27 28 30 29 31 28 25 23 22 20 21
18 19 30 11 10 29 24 19 20 20 19 18 16 16 11 2 6 9 17 17 20 23 23 26 26 26 28 28 27 26 26 27 30 31 29 30 31 28 25 23 21 18 18 18
19 26 19 16 32 26 19 17 15 16 17 15 16 16 15 7 8 12 11 11 16 17 18 19 20 22 25 27 29 30 30 30 29 30 31 29 29 26 23 20 16 16 16 17
27 29 30 31 29 29 22 17 15 12 11 14 11 8 10 12 10 14 15 15 15 13 14 17 20 21 24 26 29 29 32 32 30 30 29 29 27 24 19 15 14 14 15 15
30 30 31 33 33 30 28 23 20 17 13 14 14 11 7 7 9 14 17 18 19 19 21 18 19 21 23 26 30 31 32 30 29 30 30 27 25 20 15 14 14 14 14 15
22 28 25 26 30 28 25 23 20 18 17 13 15 16 12 8 6 8 14 18 19 18 17 15 16 19 24 27 30 31 30 29 29 28 28 26 20 16 14 15 13 13 13 14
16 21 26 30 31 28 26 24 20 18 17 16 15 14 16 14 11 7 10 14 19 18 17 15 16 19 22 24 25 25 25 26 26 27 25 20 17 14 14 13 12 11 12 13
18 19 20 23 26 27 23 21 20 18 17 17 17 17 15 15 15 14 10 13 17 17 16 16 16 18 18 20 21 23 24 24 25 26 23 21 19 16 14 11 9 9 11 12
19 18 20 21 25 26 24 18 14 13 13 13 14 16 16 15 14 14 11 10 15 15 14 13 14 15 16 18 19 21 23 26 27 25 22 18 15 12 9 7 7 8 10 12
19 21 23 24 23 24 23 22 15 10 9 9 9 10 11 11 10 10 10 11 12 14 13 14 15 15 16 17 18 20 21 21 21 20 18 15 10 7 7 7 8 9 11 12
15 18 19 20 20 21 21 20 19 16 10 6 4 4 3 3 6 8 11 13 13 12 13 13 14 14 15 17 18 20 21 19 17 15 14 11 8 7 7 8 8 9 11 13
14 16 18 18 18 18 19 18 18 16 14 13 10 7 7 9 11 11 12 12 11 10 10 11 11 12 15 17 18 18 17 17 16 13 10 8 7 7 7 8 8 10 12 14
12 14 15 16 17 18 17 17 16 15 15 15 13 11 9 8 9 8 9 10 12 12 12 12 13 13 14 16 18 18 18 16 13 12 10 8 7 8 8 9 10 11 13 15
11 12 14 15 16 16 16 16 15 14 13 11 10 9 8 6 5 4 5 5 6 10 11 11 12 14 16 17 17 17 16 14 11 9 8 8 8 8 9 10 11 13 15 17
10 11 11 13 14 14 14 14 12 11 10 9 7 6 5 5 6 5 3 4 6 7 9 11 12 14 15 17 16 14 12 10 8 8 9 9 8 9 10 12 13 15 17 19
11 11 11 11 12 12 12 12 11 9 8 7 6 5 3 2 2 3 4 6 5 6 8 9 12 13 15 15 13 10 9 9 9 10 10 10 10 11 12 14 15 17 18 20
12 12 12 12 12 11 10 9 8 8 7 5 4 3 2 0 2 4 5 5 7 8 9 10 11 12 11 10 9 8 9 10 11 11 11 12 13 14 15 16 18 19 20 21
14 14 13 13 12 12 10 9 8 7 6 5 4 3 2 3 3 4 5 7 8 9 10 11 11 10 9 8 9 11 12 12 12 13 14 15 15 16 17 18 19 20 20 22
15 15 14 14 12 11 11 10 9 8 8 7 6 5 5 5 5 5 5 6 7 8 9 9 10 9 10 11 11 12 13 14 14 15 16 17 18 19 19 20 20 20 22 22
Wind_Direction
274 288 280 279 258 221 225 223 222 236 239 240 220 226 261 277 281 271 250 273 260 239 243 234 228 219 209 206 205 207 207 210 215 220 226 233 239 239 236 237 242 253 264 271
301 333 273 253 260 229 221 232 239 240 239 244 226 230 234 237 249 300 242 247 247 235 230 234 223 218 213 209 208 209 212 213 217 221 228 234 240 239 235 237 242 253 263 271
290 316 239 128 357 237 184 213 234 235 230 227 222 225 233 244 247 238 251 261 210 200 193 207 210 207 209 212 214 216 217 217 219 225 232 238 242 238 234 234 242 252 263 273
287 351 101 88 65 84 88 81 107 175 219 226 229 219 219 226 231 231 233 210 210 210 208 201 200 202 203 209 216 220 223 224 226 228 233 238 238 234 232 235 243 251 263 277
323 352 143 13 4 343 73 43 43 39 171 221 224 224 229 228 234 230 246 235 244 209 206 208 201 199 201 208 214 215 220 223 227 232 235 239 236 233 232 236 243 256 270 281
341 56 42 351 17 153 114 41 29 29 30 347 218 200 219 219 223 235 232 224 229 222 225 232 224 218 225 225 225 225 225 225 224 228 233 233 234 231 233 239 249 261 274 281
1 52 63 1 26 85 57 340 10 13 19 27 45 191 204 207 213 215 213 218 212 205 208 214 225 225 227 232 232 228 224 221 224 228 231 234 233 234 238 243 251 264 275 276
356 20 29 349 20 38 4 5 355 2 8 17 28 54 211 216 222 220 213 212 217 217 215 216 218 220 218 223 227 229 226 223 226 230 235 237 237 240 244 243 254 266 270 271
351 319 346 335 10 3 351 350 349 345 355 5 13 31 342 227 225 228 224 212 213 215 213 213 216 217 217 220 224 226 226 228 231 238 241 242 244 237 236 245 256 261 263 270
349 342 347 349 14 331 332 337 333 334 337 351 3 20 360 221 218 229 230 229 220 218 214 212 215 217 217 218 222 229 231 232 235 239 244 239 233 231 237 246 250 254 263 275
348 338 346 326 319 321 322 325 324 327 322 332 346 13 358 315 224 219 230 229 219 220 215 209 209 215 215 219 223 228 229 233 238 237 234 231 227 230 236 240 241 252 264 272
332 334 328 324 320 317 312 307 307 306 302 301 309 334 349 340 276 238 228 226 240 236 228 224 214 214 220 224 225 226 228 230 234 235 230 224 223 225 225 224 238 252 262 276
332 333 332 323 319 315 309 301 294 297 294 289 289 280 290 322 327 252 237 227 218 220 221 220 223 221 220 222 226 225 226 231 230 224 220 218 218 211 210 223 237 247 261 273
329 327 327 327 318 312 303 298 292 285 283 274 275 279 266 273 306 327 255 242 225 219 217 213 218 219 220 223 226 228 226 221 218 215 216 212 201 202 210 220 232 248 263 275
346 347 346 338 327 320 312 298 288 278 273 273 270 261 264 257 269 280 301 256 241 227 222 216 222 225 229 230 232 232 229 224 221 217 208 195 193 201 214 221 232 249 267 280
359 358 354 351 343 337 328 314 299 287 276 270 268 267 262 264 258 254 255 265 240 227 225 228 224 224 225 226 224 222 218 217 217 213 201 193 191 201 215 224 240 263 277 291
358 2 9 9 5 360 356 344 322 305 288 273 267 263 266 266 268 265 234 231 236 222 210 207 209 212 214 211 211 216 218 217 209 201 192 186 188 197 212 236 256 274 287 293
4 5 6 10 10 9 10 7 358 340 313 296 281 270 267 261 253 248 223 178 187 193 179 182 185 190 199 204 204 205 204 199 193 187 185 182 179 189 218 239 257 272 282 293
10 9 8 12 14 16 16 20 22 22 16 356 323 284 250 212 178 172 169 153 151 165 178 178 180 184 196 198 197 198 196 189 181 176 169 166 177 204 228 246 265 282 296 304
2 7 8 10 15 19 22 23 34 41 46 54 60 74 102 122 126 136 139 140 141 151 178 180 178 186 194 196 192 186 179 173 167 159 155 170 194 216 240 258 273 287 296 302
351 357 4 8 12 16 22 27 29 36 48 58 62 68 78 99 114 126 136 149 156 164 176 184 181 184 187 187 185 182 177 167 159 165 175 193 213 232 251 268 281 292 298 304
336 347 354 360 4 10 14 19 24 27 34 40 57 74 77 78 92 114 130 140 170 171 171 178 184 190 191 188 187 182 172 165 164 175 195 217 235 251 265 278 288 294 300 305
326 332 342 349 351 355 6 9 10 19 24 28 36 51 70 89 106 118 147 153 172 186 179 180 186 193 194 192 185 174 165 166 179 203 220 234 248 263 277 287 294 299 304 309
316 320 326 334 341 347 349 348 352 360 10 16 24 25 39 64 118 150 167 170 180 196 201 194 192 192 194 190 180 173 181 196 211 224 239 251 264 273 281 289 296 299 302 308
307 308 312 320 327 329 330 331 333 337 344 351 354 356 347 277 180 193 188 182 189 196 200 203 202 201 192 184 186 200 216 225 234 245 254 263 272 281 288 292 296 299 305 309
304 305 306 307 309 312 314 314 316 318 314 312 307 294 281 267 243 224 216 213 208 207 208 213 214 209 208 214 220 227 232 240 246 255 263 270 277 282 285 288 293 299 305 308
300 300 301 303 304 304 304 306 308 307 304 298 289 284 271 258 245 238 231 227 225 221 218 220 223 224 229 232 237 242 248 252 259 263 268 272 276 279 285 292 298 303 304 303
Height
2870 2867 2869 2870 2872 2879 2884 2887 2887 2891 2894 2902 2908 2911 2911 2912 2913 2914 2914 2915 2916 2919 2923 2926 2930 2934 2938 2943 2949 2955 2961 2967 2973 2979 2983 2988 2991 2994 2997 3001 3004 3007 3008 3008
2860 2857 2861 2865 2872 2873 2878 2883 2887 2888 2892 2896 2901 2903 2907 2906 2907 2910 2911 2912 2912 2914 2918 2922 2925 2930 2934 2939 2944 2950 2955 2961 2967 2972 2978 2981 2984 2988 2991 2995 2998 2999 3000 3000
2860 2861 2857 2866 2867 2868 2871 2869 2878 2882 2883 2887 2891 2893 2896 2898 2901 2904 2906 2909 2909 2912 2916 2919 2922 2927 2931 2936 2941 2945 2950 2956 2962 2967 2972 2975 2979 2982 2985 2988 2990 2992 2993 2993
2863 2858 2860 2875 2869 2869 2867 2871 2873 2874 2876 2879 2880 2886 2889 2892 2897 2900 2902 2903 2903 2909 2913 2916 2919 2922 2926 2931 2936 2940 2945 2950 2955 2960 2965 2968 2972 2975 2978 2980 2982 2984 2985 2985
2869 2866 2874 2871 2867 2870 2872 2875 2872 2871 2871 2869 2871 2879 2883 2887 2891 2894 2896 2899 2902 2903 2908 2912 2917 2921 2924 2928 2932 2934 2939 2944 2949 2953 2958 2961 2965 2968 2970 2973 2974 2977 2978 2977
2869 2873 2878 2882 2867 2865 2864 2874 2872 2870 2868 2865 2868 2871 2874 2877 2882 2886 2891 2893 2896 2899 2902 2907 2912 2916 2919 2923 2925 2930 2934 2938 2943 2947 2951 2954 2957 2960 2962 2964 2968 2970 2970 2970
2874 2873 2880 2883 2871 2868 2872 2884 2873 2870 2868 2866 2865 2867 2868 2871 2875 2879 2883 2888 2890 2893 2897 2902 2907 2910 2914 2917 2920 2925 2928 2932 2936 2939 2942 2945 2949 2951 2955 2959 2961 2963 2963 2963
2885 2886 2890 2885 2877 2873 2883 2879 2874 2871 2868 2866 2864 2863 2863 2865 2869 2874 2877 2881 2884 2887 2891 2895 2899 2903 2907 2911 2915 2919 2922 2926 2929 2933 2935 2938 2941 2944 2949 2952 2954 2956 2957 2957
2897 2891 2889 2887 2883 2881 2880 2878 2875 2873 2869 2865 2863 2860 2859 2860 2864 2868 2871 2874 2876 2879 2882 2887 2891 2894 2899 2906 2910 2914 2917 2920 2923 2927 2929 2932 2935 2939 2943 2946 2948 2949 2950 2950
2891 2888 2887 2884 2883 2884 2881 2878 2874 2871 2867 2864 2861 2857 2857 2857 2860 2865 2868 2870 2872 2874 2877 2880 2884 2889 2894 2899 2904 2908 2911 2914 2917 2920 2923 2927 2930 2934 2937 2939 2941 2942 2943 2944
2892 2889 2887 2883 2880 2878 2876 2873 2872 2869 2864 2861 2858 2855 2856 2856 2859 2862 2865 2868 2869 2871 2874 2877 2880 2884 2889 2893 2898 2901 2904 2908 2911 2915 2918 2921 2925 2928 2930 2932 2935 2936 2938 2939
2890 2888 2884 2879 2874 2870 2868 2867 2866 2864 2862 2860 2859 2858 2858 2858 2858 2860 2862 2864 2866 2869 2871 2874 2877 2881 2885 2889 2892 2896 2900 2903 2906 2909 2912 2915 2918 2921 2923 2926 2928 2931 2932 2932
2886 2882 2878 2872 2869 2865 2862 2861 2860 2859 2859 2857 2857 2857 2858 2858 2857 2857 2858 2860 2862 2865 2867 2870 2873 2877 2881 2884 2887 2891 2894 2897 2900 2902 2906 2909 2912 2914 2918 2920 2923 2925 2926 2926
2890 2882 2878 2872 2863 2861 2858 2856 2855 2854 2854 2856 2855 2853 2853 2854 2853 2854 2854 2856 2857 2860 2862 2864 2868 2871 2875 2878 2881 2884 2888 2891 2894 2897 2900 2903 2906 2910 2913 2916 2918 2920 2921 2920
2891 2884 2876 2868 2861 2856 2852 2850 2849 2849 2848 2848 2850 2851 2851 2850 2849 2848 2851 2851 2853 2855 2857 2860 2863 2867 2871 2874 2877 2880 2884 2887 2891 2893 2896 2899 2903 2907 2910 2912 2913 2914 2915 2915
2888 2883 2878 2869 2859 2852 2849 2845 2843 2843 2843 2843 2843 2844 2845 2846 2845 2846 2846 2848 2850 2852 2853 2856 2859 2863 2867 2871 2874 2878 2880 2883 2886 2889 2892 2895 2899 2903 2906 2908 2908 2909 2910 2910
2885 2881 2875 2868 2860 2853 2847 2842 2840 2840 2841 2840 2840 2839 2839 2839 2840 2841 2840 2842 2845 2847 2849 2852 2856 2859 2864 2868 2871 2875 2878 2880 2882 2885 2888 2892 2895 2898 2901 2903 2904 2906 2906 2908
2884 2879 2873 2869 2865 2858 2852 2845 2842 2839 2839 2838 2836 2835 2836 2836 2835 2838 2840 2838 2841 2845 2849 2851 2854 2856 2862 2868 2871 2874 2877 2880 2881 2883 2886 2889 2893 2896 2899 2901 2902 2903 2904 2903
2885 2881 2877 2872 2867 2862 2857 2851 2846 2841 2839 2837 2835 2835 2835 2836 2836 2838 2840 2840 2842 2843 2850 2854 2854 2855 2862 2869 2871 2874 2877 2879 2880 2883 2885 2888 2891 2894 2896 2898 2898 2899 2898 2897
2885 2881 2878 2874 2869 2865 2861 2856 2852 2848 2844 2841 2839 2839 2839 2840 2840 2842 2842 2842 2844 2847 2853 2855 2854 2857 2864 2869 2872 2874 2876 2878 2880 2882 2884 2888 2890 2892 2893 2894 2895 2895 2895 2894
2884 2881 2878 2875 2870 2867 2863 2859 2856 2852 2849 2846 2846 2845 2845 2845 2845 2845 2845 2845 2846 2849 2853 2856 2857 2860 2864 2869 2872 2874 2875 2877 2879 2882 2884 2887 2888 2890 2891 2891 2892 2892 2892 2889
2883 2880 2877 2873 2870 2867 2864 2861 2858 2856 2853 2852 2850 2849 2848 2849 2848 2849 2849 2849 2849 2851 2854 2856 2858 2862 2866 2869 2872 2873 2874 2876 2879 2882 2884 2886 2887 2888 2888 2888 2889 2889 2888 2885
2881 2878 2876 2873 2870 2868 2865 2862 2860 2858 2856 2855 2853 2852 2852 2851 2849 2850 2852 2852 2852 2855 2856 2857 2860 2864 2867 2869 2871 2872 2874 2876 2878 2881 2883 2884 2885 2885 2885 2885 2884 2884 2884 2881
2878 2876 2874 2872 2870 2867 2865 2863 2861 2859 2858 2856 2855 2854 2853 2852 2852 2853 2853 2853 2853 2856 2859 2860 2862 2864 2866 2868 2870 2872 2874 2876 2877 2879 2880 2881 2881 2881 2881 2880 2880 2880 2878 2875
2875 2873 2872 2870 2868 2866 2864 2862 2861 2860 2858 2857 2856 2855 2854 2854 2854 2854 2853 2852 2854 2857 2859 2861 2863 2864 2865 2867 2869 2871 2873 2874 2875 2876 2877 2878 2878 2877 2877 2876 2876 2875 2873 2870
2871 2870 2868 2867 2865 2864 2862 2861 2860 2859 2858 2857 2856 2855 2855 2854 2854 2853 2854 2854 2856 2857 2858 2860 2861 2863 2864 2866 2868 2869 2871 2871 2872 2872 2873 2873 2873 2873 2873 2872 2871 2869 2865 2864
2867 2866 2865 2863 2862 2861 2860 2859 2858 2857 2856 2855 2855 2854 2854 2853 2853 2853 2854 2854 2855 2855 2856 2858 2859 2860 2862 2863 2865 2866 2867 2867 2867 2868 2869 2869 2869 2869 2867 2866 2864 2862 2860 2858